Overview Statistics Trail Chart Weather Telemetry Raw packets
 

This is the latest recevied weather packets stored in our database for station/object K5OLV. If no packets are shown the sender has not sent any weather packets the latest 10 day(s).

<< 93 94 95 96 97 98 99 >>
Time Temp. Humidity Pressure Rain* Wind** Luminosity Snow
1787921796 20.56° C 98% 1016 hPa 0 mm - 59 W/m² -
1787921496 20.56° C 98% 1016 hPa 0 mm - 55 W/m² -
1787921190 20.56° C 98% 1016.2 hPa 0 mm - 55 W/m² -
1787920886 20.56° C 99% 1016 hPa 0 mm - 47 W/m² -
1787920581 20° C 99% 1015.9 hPa 0 mm - 46 W/m² -
1787920275 20° C 99% 1015.8 hPa 0 mm - 42 W/m² -
1787919968 20° C 99% 1015.8 hPa 0 mm - 40 W/m² -
1787919667 19.44° C 99% 1015.9 hPa 0 mm - 43 W/m² -
1787919362 19.44° C 99% 1015.9 hPa 0 mm - 36 W/m² -
1787919058 19.44° C 99% 1015.9 hPa 0 mm - 35 W/m² -
1787918752 19.44° C 99% 1015.6 hPa 0 mm - 32 W/m² -
1787918452 19.44° C 99% 1015.5 hPa 0 mm - 27 W/m² -
1787918150 19.44° C 99% 1015.6 hPa 0 mm - 24 W/m² -
1787917845 18.89° C 99% 1015.4 hPa 0 mm - 23 W/m² -
1787917542 18.89° C 99% 1015.6 hPa 0 mm - 23 W/m² -
1787917238 18.89° C 99% 1015.3 hPa 0 mm - 19 W/m² -
1787916932 18.89° C 99% 1015.3 hPa 0 mm - 17 W/m² -
1787916632 18.89° C 99% 1015.1 hPa 0 mm - 12 W/m² -
1787916326 18.89° C 99% 1015.1 hPa 0 mm - 7 W/m² -
1787916021 18.89° C 99% 1015 hPa 0 mm - 5 W/m² -
1787915716 18.89° C 99% 1015 hPa 0 mm - 2 W/m² -
1787915411 19.44° C 99% 1014.9 hPa 0 mm - 0 W/m² -
1787915111 19.44° C 99% 1014.8 hPa 0 mm - 0 W/m² -
1787914811 19.44° C 99% 1014.8 hPa 0 mm - 0 W/m² -
1787914510 19.44° C 99% 1014.9 hPa 0 mm - 0 W/m² -

* Rain latest hour (hover to see other rain measurements)
** Current wind speed in m/s (hover to see current wind gust speed)